www.pogodaiklimat.ru

Погода и климат >> Архив погоды >> Россия >> Магаданская область >> Усть-Бохапча


ПОГОДА в Усть-Бохапче

  • Прогноз погоды в Усть-Бохапче
  • Монитор погоды в Усть-Бохапче

АРХИВ ПОГОДЫ в Усть-Бохапче

Время (UTC), дата Ветер
(напр.,м/с)
 
Видим.   Явления Облачность Т
(С)
Тd
(С)
f
(%)
Тe
(С)
Тes
(С)
Комфортность P
(гПа)
Po
(гПа)
Тmin
(С)
Tmax
(С)
R
(мм)
R24
(мм)
S
(см)
12 12.06 Ю 1 50 км 4/1 1000 м
[Sc diur, vesp Ci fib]
+8.5 +3.5 71 +8 +8 1012.0 970.3
15 12.06 Ю 1 50 км 1/1 1000 м
[Sc]
+1.3 +1.3 100 -1 -1 1014.1 971.3
18 12.06 В 2 50 км 1/1 1000 м
[Sc]
+6.1 +2.7 79 +4 +4 1014.3 972.2
21 12.06 Ю 2 50 км ясно +14.0 +3.4 49 +14 +19 1013.3 972.3 -0.1
00 13.06 СЗ 4 50 км 6/6 1000 м
[Sc]
+15.6 +3.6 45 +15 +18 1012.4 971.7
03 13.06 З 3 50 км 9/9 600 м
[Sc]
+16.5 +2.4 39 +16 +17 1011.8 971.2
06 13.06 СЗ 2 50 км 8/8 600 м
[Sc]
+17.2 +1.1 34 +18 +19 1011.3 970.9
09 13.06 СЗ 4 50 км 8/8 1000 м
[Sc]
+18.0 +0.5 31 +18 +18 1011.2 970.9 +18.7
12 13.06 штиль 0 50 км ясно +7.2 +2.8 74 +7 +7 1013.5 971.5
15 13.06 Ю 2 50 км ясно +2.3 +1.8 96 -1 -1 1015.0 972.2
18 13.06 ЮВ 2 50 км 3/0
[Ci fib]
+4.8 +1.0 76 +2 +3 1015.2 972.8
21 13.06 Ю 2 50 км 8/0
[Ci fib]
+13.6 +1.8 45 +13 +17 1013.6 972.6 +1.2
00 14.06 ЮВ 4 50 км 6/0
[Ci fib]
+17.9 +0.8 32 +18 +25 1011.6 971.2
03 14.06 СЗ 4 50 км 1/1 1000 м
[Cu hum]
+21.1 +0.6 26 +21 +29 комфорт 1010.1 970.2
06 14.06 З 4 50 км 1/1 1000 м
[Cu hum]
+22.0 -0.7 22 +21 +26 комфорт 1009.2 969.4
09 14.06 З 3 50 км 1/1 1000 м
[Cu hum]
+20.5 -0.7 24 +21 +22 комфорт 1010.0 970.0 +22.2
12 14.06 ЮЗ 1 50 км ясно +8.4 +3.4 71 +8 +8 1013.0 971.3
15 14.06 В 1 50 км ясно +2.3 +1.9 97 0 0 1015.9 973.1
18 14.06 ЮВ 2 50 км ясно +4.9 +0.7 74 +2 +3 1016.7 974.2
21 14.06 Ю 3 50 км 6/0
[Ci fib]
+14.1 +0.7 40 +13 +17 1016.1 975.0 +0.3
00 15.06 ЮВ 2 50 км 8/0
[Ci fib]
+19.7 +0.2 27 +20 +30 1014.5 974.2
03 15.06 ЮВ 3 50 км 3/1 1000 м
[Cu hum Ci fib]
+22.0 -2.0 20 +21 +30 комфорт 1013.2 973.3
06 15.06 Ю 1 50 км 1/1 1000 м
[Cu hum]
+23.5 -6.1 13 +22 +29 комфорт 1012.3 972.6
09 15.06 З 2 50 км 1/1 1000 м
[Cu hum]
+21.7 -3.6 18 +21 +22 комфорт 1012.9 973.0 +24.1
12 15.06 штиль 0 50 км ясно +6.5 +2.6 76 +6 +6 1016.2 974.1
15 15.06 Ю 1 50 км ясно +4.2 +1.0 80 +3 +3 1018.2 975.6
18 15.06 Ю 1 50 км 1/1 1000 м
[Sc]
+4.9 +1.0 76 +4 +4 1018.8 976.3
21 15.06 Ю 1 50 км 8/1 1000 м
[Sc Ci fib]
+14.4 +1.2 41 +15 +19 1017.1 976.0 +1.0
00 16.06 ЮВ 3 50 км 8/1 1000 м
[Cu hum Ci fib]
+20.9 -1.0 23 +21 +29 комфорт 1014.5 974.4
03 16.06 Ю 2 50 км 9/3 1000 м
[Cu hum Ci]
+22.1 -2.5 19 +21 +29 комфорт 1012.1 972.3
06 16.06 Ю 4
{11}
50 км 9/3 1000 м
[Sc Ac trans]
+21.0 -6.3 15 +20 +22 1011.3 971.3
09 16.06 ЮВ 5-11
{11}
50 км 9/6 1000 м
[Sc Ac trans]
+19.5 -0.6 26 +19 +19 1010.8 970.6 +23.5
12 16.06 ЮВ 3
{12}
50 км 10/8 1000 м
[Sc As op]
+13.9 +3.1 48 +13 +13 1013.3 972.3
15 16.06 ЮВ 2
{10}
50 км {ливн. осадки} 9/8 1000 м
[Sc As op]
+9.5 +5.7 77 +8 +8 1013.9 972.3
18 16.06 Ю 3 50 км 10/9 1000 м
[Sc Ci fib]
+9.2 +3.8 69 +7 +7 1014.3 972.7
21 16.06 ЮВ 3 50 км 8/8 1000 м
[Sc]
+10.3 +2.6 59 +9 +9 1014.7 973.2 +7.3 0.0
00 17.06 Ю 3 50 км {ливн. осадки} 6/6 1000 м
[Sc diur, vesp]
+14.3 +0.6 39 +14 +18 1014.2 973.2
03 17.06 ЮЗ 3
{11}
50 км 8/3 1000 м
[Cu hum Ac trans Ci fib]
+17.3 -0.4 30 +17 +22 1013.0 972.5
06 17.06 ЮВ 4 50 км 10/4 1000 м
[Sc As op]
+15.5 -0.5 33 +15 +15 1013.3 972.5
09 17.06 Ю 3
{10}
50 км 10/5 1000 м
[Sc As op]
+12.4 +1.7 48 +11 +11 1014.1 972.9 +17.6 0.0
12 17.06 ЮВ 4 50 км 10/4 1000 м
[Sc As op]
+10.4 +3.3 61 +8 +8 1014.6 973.0
15 17.06 ЮВ 2 20 км слаб. ливневой дождь 10/8 1000 м
[Cb cap As op]
+8.0 +5.9 87 +6 +6 1014.5 972.6
18 17.06 В 1 н/о {ливн. осадки} н/о +7.2 +6.8 97 +6 +6 1014.1 972.2
21 17.06 штиль 0 20 км слаб. ливневой дождь 10/10 600 м
[Cb cap]
+8.2 +7.5 95 +7 +7 1013.6 971.8 +6.5 2
00 18.06 С 1 10 км слаб. ливневой дождь 10/10 600 м
[Cb cap]
+10.5 +8.6 88 +10 +10 1012.9 971.6
03 18.06 С 4 50 км {ливн. осадки} 10/10 600 м
[Sc]
+11.8 +8.9 82 +10 +10 1011.8 970.6
06 18.06 С 3 50 км {ливн. осадки} 10/10 600 м
[Sc]
+13.4 +7.9 69 +12 +12 1011.1 970.1
09 18.06 СЗ 2 50 км 10/10 600 м
[Sc]
+12.5 +9.1 80 +12 +12 1011.2 970.1 +13.7 0.4
12 18.06 СЗ 2 50 км 10/10 600 м
[Sc]
+10.7 +9.2 90 +9 +9 1011.6 970.3
15 18.06 С 1 50 км 10/10 600 м
[Sc]
+9.7 +8.7 93 +9 +9 1011.5 970.0
18 18.06 штиль 0 50 км 10/10 600 м
[Sc]
+9.6 +8.4 92 +9 +9 1011.3 969.8
21 18.06 В 1 50 км 10/10 600 м
[Sc]
+11.9 +9.7 86 +12 +12 1010.8 969.7 +9.1
00 19.06 С 1 50 км 10/10 600 м
[Sc]
+16.2 +9.8 66 +17 +17 1009.6 969.1
03 19.06 СЗ 2 50 км в посл. час ливневой дождь 10/10 600 м
[Cb cap]
+17.3 +11.0 66 +18 +18 1008.2 968.0
06 19.06 С 1 50 км {ливн. осадки} 10/10 600 м
[Sc]
+14.6 +12.7 88 +15 +15 1008.9 968.3
09 19.06 С 1 50 км 10/10 600 м
[Sc]
+13.7 +11.6 87 +14 +14 1009.2 968.5 +18.3 0.3

 

Местоположение метеостанции Усть-Бохапча (Магаданская область, Россия): широта 62.10 долгота 150.60 высота над уровнем моря 349 м.

В архиве по умолчанию представлена погода в Усть-Бохапче за последнюю неделю. Архивные данные за месяц целиком и за предыдущие месяцы, начиная с января 2011 года, Вы можете получить, выбрав интересующий диапазон дат из раскрывающегося списка и нажав кнопку "Ввод!".


*Определитесь, кто Вы:
робот инопланетянин человек

Внимание! Время в таблицах - всемирное. Для получения местного времени необходимо прибавить поправку, которая равна 11 ч.

Смотрите также архив погоды в соседних городах и на ближайших метеорологических станциях:

Погода на Озере Джека Лондона (Магаданская область, Россия) (57 км)
Погода в Ягодной (Магаданская область, Россия) (69 км)
Погода в Совхозе Эльген (Магаданская область, Россия) (78 км)
Погода в Среднекане (Магаданская область, Россия) (96 км)
Погода в Усть-Омчуге (Магаданская область, Россия) (121 км)
Погода в Сеймчане (Магаданская область, Россия) (129 км)
Погода в Талой (Магаданская область, Россия) (140 км)
Погода в Сусумане (Магаданская область, Россия) (149 км)
Погода в Колымской (Магаданская область, Россия) (159 км)
Погода в Мадауне (Магаданская область, Россия) (167 км)

Пояснения к столбцам:

Ветер - указаны скорость ветра в м/с - средняя за 10 мин, порывы в срок и между сроками (в фигурных скобках) и направление, откуда дует ветер: С - северный, СВ - северо-восточный, В - восточный, ЮВ - юго-восточный, Ю - южный, ЮЗ - юго-западный, З - западный, СЗ - северо-западный.
Видимость - горизонтальная дальность видимости в метрах или километрах. При видимости от 1 до 10 км при отсутствии осадков обычно наблюдается дымка, при ухудшении видимости до 1 км и менее - туман. В сухую погоду видимость может ухудшаться дымом, пылью или мглою.
Явления - указаны атмосферные явления, наблюдавшиеся в срок или в последний час перед сроком; фигурными скобками обозначены явления, наблюдавшиеся между сроками (за 1-3 часа до срока); квадратными скобками обозначены град или гололедные отложения с указанием их диаметра в мм.
Облачность - указаны через наклонную черту общая и нижняя облачность в баллах и высота нижней границы облаков в метрах; квадратными скобками обозначены формы облаков: Ci - перистые, Cs - перисто-слоистые, Cc - перисто-кучевые, Ac - высококучевые, As - высокослоистые, Sc - слоисто-кучевые, Ns - слоисто-дождевые, Cu - кучевые, Cb - кучево-дождевые. Подробнее классификацию облаков см. в Атласе облаков (PDF).
T - Температура воздуха - температура, измеренная на высоте 2 м над землей.
Td - Температура точки росы - температура, при понижении до которой содержащийся в воздухе водяной пар достигнет насыщения.
f - Относительная влажность воздуха - влажноcть воздуха, измеренная на высоте 2 м над землей.
Te - Эффективная температура - температура, которую ощущает одетый по сезону человек в тени. Характеристика душности погоды. При расчете учитывается влияние влажности воздуха и скорости ветра на теплоощущения человека.
Tes - Эффективная температура на солнце - температура, которую ощущает человек, с поправкой на солнечный нагрев. Характеристика знойности погоды. Зависит от высоты солнца над горизонтом, облачности и скорости ветра. Ночью, в пасмурную погоду, а также при ветре 12 м/с и более поправка равна нулю.
P - Атмосферное давление - приведенное к уровню моря атмосферное давление.
Po - Атмосферное давление - измеренное на уровне метеостанции атмосферное давление.
Tmin - Минимальная температура - минимум температуры воздуха на высоте 2 м над землей.
Tmax - Максимальная температура - максимум температуры воздуха на высоте 2 м над землей.
R - Количество осадков - Количество выпавших осадков за период времени, мм. При наведении курсора мыши на число - период времени, за который выпало указанное количество осадков.
R24 - Количество осадков - Количество выпавших осадков за 24 часа, мм.
S - Снежный покров - Высота снежного покрова, см. При наведении курсора мыши на число - состояние снежного покрова и степень покрытия местности в баллах.